Content
SEND FEEDBACK

Daily
Averages
Monthly
Summary
United States of America

ASHEVILLE, NORTH CAROLINA


Home > North America > United States > North Carolina
Elevation: 2240 feet     Latitude: 35 36N     Longitude: 082 32W

WEATHER
 
SELECT A DAY
Number of Records: 226,235;   Date Range: 1/1/95 - 8/25/14
 
SHARE

PRINT THIS DATA

[ ← Previous Day ]
WEATHER ALMANAC - DECEMBER 8, 2013
[ Next Day → ]
[ °C ]   °F
Weather ElementAverageHighLow
Temperature36.7 °F41 °F (1:54 am)33.8 °F (7:01 pm)
Dewpoint35.4 °F37.9 °F (1:54 am)33.1 °F (6:54 pm)
Humidity95.3 %100 % (6:21 am)87 % (2:21 am)
Barometer30.29 in30.35 in (9:54 am)30.20 in (11:19 pm)
Wind Speed8.4 mph13.8 mph (4:31 pm)
Wind Gust17.3 mph (11:18 am)
Weather ElementAverage
Visibility5.2 mi
Wind DirectionSSE (159.1 °)

Weather ElementTotal
Precipitation0.92 in
Heating Degree Days27.6 (Base 65)
Averaged from 46 records on December 8, 2013
WEATHER CONDITIONS BREAKOUT
WIND DIRECTION BREAKOUT
WEATHER BY HOUR - DECEMBER 8, 2013
[ °C ]   °F
Local TimeTemperatureDewpointHumidityBarometerVisibilityWind DirectionWind SpeedGust SpeedPrecipitationEventsConditions
1:54 AM41.0 °F37.9 °F89 %30.32 in10.0 miSE (140°)5.8 mphOvercast
2:21 AM41.0 °F37.4 °F87 %30.32 in10.0 miSSE (160°)6.9 mph0.00 inOvercast
2:54 AM39.9 °F37.9 °F93 %30.32 in8.0 miSE (140°)5.8 mph0.00 inOvercast
3:54 AM39.9 °F37.9 °F93 %30.31 in6.0 miSE (130°)4.6 mph0.02 inRainLight Rain
4:54 AM39.0 °F37.9 °F96 %30.32 in5.0 miSSE (150°)4.6 mph0.03 inRainLight Rain
5:05 AM39.2 °F37.4 °F93 %30.31 in7.0 miSE (140°)4.6 mph0.00 inRainLight Rain
5:37 AM39.2 °F37.4 °F93 %30.30 in4.0 miSSE (150°)4.6 mph0.00 inOvercast
5:54 AM39.0 °F37.9 °F96 %30.32 in5.0 miSouth (170°)6.9 mph0.00 inRainLight Rain
6:11 AM39.2 °F37.4 °F93 %30.30 in8.0 miSSE (150°)5.8 mph0.00 inOvercast
6:21 AM37.4 °F37.4 °F100 %30.30 in9.0 miSSE (160°)4.6 mph0.00 inOvercast
6:34 AM37.4 °F37.4 °F100 %30.30 in7.0 miSSE (160°)8.1 mph0.00 inRainLight Rain
6:54 AM37.9 °F37.0 °F97 %30.32 in8.0 miSSE (160°)5.8 mph0.01 inRainLight Rain
7:54 AM37.0 °F36.0 °F96 %30.34 in5.0 miSouth (170°)9.2 mph0.00 inOvercast
8:54 AM37.0 °F36.0 °F96 %30.32 in5.0 miSouth (170°)11.5 mph0.00 inOvercast
9:41 AM37.4 °F35.6 °F93 %30.33 in2.0 miSouth (170°)10.4 mph0.00 inOvercast
9:50 AM37.4 °F35.6 °F93 %30.33 in1.8 miSouth (170°)9.2 mph0.00 inRainLight Rain
9:54 AM37.0 °F36.0 °F96 %30.35 in2.0 miSouth (170°)10.4 mph0.00 inRainLight Rain
10:07 AM37.4 °F35.6 °F93 %30.31 in2.0 miSSE (150°)6.9 mph0.01 inRainLight Rain
10:20 AM37.4 °F35.6 °F93 %30.32 in2.5 miSouth (170°)8.1 mph0.01 inRainLight Rain
10:32 AM37.4 °F35.6 °F93 %30.32 in1.5 miSSE (160°)8.1 mph0.05 inRainHeavy Rain
10:40 AM37.4 °F35.6 °F93 %30.33 in3.0 miSSE (160°)9.2 mph0.06 inRainLight Rain
10:51 AM37.4 °F35.6 °F93 %30.32 in2.0 miSSE (160°)9.2 mph0.09 inRainRain
10:54 AM37.0 °F36.0 °F96 %30.34 in2.5 miSSE (160°)11.5 mph0.09 inRainLight Rain
11:05 AM35.6 °F35.6 °F100 %30.33 in1.5 miSSE (160°)10.4 mph0.05 inRainHeavy Rain
11:18 AM35.6 °F33.8 °F93 %30.33 in2.5 miSSE (160°)12.7 mph17.3 mph0.08 inRainLight Rain
11:38 AM35.6 °F33.8 °F93 %30.32 in3.0 miSSE (150°)8.1 mph0.12 inRainLight Rain
11:54 AM36.0 °F34.0 °F93 %30.33 in3.0 miSE (140°)8.1 mph0.14 inRainLight Rain
12:05 PM35.6 °F33.8 °F93 %30.30 in6.0 miSSE (160°)10.4 mph0.01 inRainLight Rain
12:23 PM35.6 °F33.8 °F93 %30.30 in10.0 miSSE (150°)10.4 mph0.01 inRainLight Rain
12:54 PM36.0 °F35.1 °F97 %30.30 in10.0 miSSE (150°)5.8 mph0.02 inOvercast
1:51 PM35.6 °F35.6 °F100 %30.25 in10.0 miSSE (160°)10.4 mph0.00 inRainLight Rain
1:54 PM36.0 °F35.1 °F97 %30.27 in10.0 miSSE (160°)8.1 mph0.00 inOvercast
2:54 PM37.0 °F36.0 °F96 %30.24 in7.0 miSouth (170°)9.2 mphOvercast
3:54 PM36.0 °F35.1 °F97 %30.25 in5.0 miSouth (170°)12.7 mphOvercast
4:18 PM35.6 °F35.6 °F100 %30.24 in2.0 miSouth (180°)6.9 mph0.00 inRainLight Rain
4:31 PM35.6 °F33.8 °F93 %30.22 in4.0 miSouth (170°)13.8 mph17.3 mph0.00 inOvercast
4:54 PM35.1 °F34.0 °F96 %30.23 in2.5 miSSE (150°)8.1 mph0.00 inRainLight Rain
5:54 PM35.1 °F34.0 °F96 %30.27 in2.5 miSSE (160°)9.2 mph0.01 inRainLight Rain
6:54 PM34.0 °F33.1 °F96 %30.27 in2.5 miSSE (150°)6.9 mph0.01 inRainLight Rain
7:01 PM33.8 °F33.8 °F100 %30.26 in3.0 miSouth (170°)6.9 mph0.00 inRainLight Rain
7:54 PM34.0 °F33.1 °F96 %30.28 in3.0 miSSE (160°)8.1 mph0.02 inOvercast
8:54 PM34.0 °F33.1 °F96 %30.27 in6.0 miSSE (160°)9.2 mphOvercast
9:54 PM34.0 °F33.1 °F96 %30.25 in10.0 miSouth (180°)11.5 mphOvercast
10:54 PM34.0 °F33.1 °F96 %30.24 in3.0 miSSE (160°)9.2 mph0.01 inRainRain
11:19 PM33.8 °F33.8 °F100 %30.20 in7.0 miSouth (170°)8.1 mph0.03 inRainLight Rain
11:54 PM34.0 °F34.0 °F100 %30.22 in10.0 miSSE (160°)9.2 mph0.04 inRainLight Rain
Hourly data recorded from KAVL, located miles away from Asheville, North Carolina







STORIES FROM OUR PARTNERS